This demonstration page uses our WeatherBlox Daily Observations layout. Learn more.

Hourly Observations for October 24, 2016

Temp ( °F °C ) Dew Point ( °F °C ) Humidity (%) Winds ( mph kmh ) Pressure ( in mb ) Visibility ( mi km ) Precip ( " mm )
12:15 am 00:15 Clear 42 5.5 28 -2.1 58 58 Calm 30.3 1026 10 16.09344 0 0
12:35 am 00:35 Clear 42 5.4 28 -2.2 58 58 ENE 3 6 30.3 1026 10 16.09344 0 0
12:55 am 00:55 Clear 41 4.8 28 -2.1 61 61 Calm 30.36 1028 10 16.09344 0 0
1:15 am 01:15 Clear 39 3.7 28 -2.3 65 65 Calm 30.36 1028 10 16.09344 0 0
1:35 am 01:35 Clear 36 2.3 28 -2.5 71 71 NNE 5 7 30.36 1028 10 16.09344 0 0
1:55 am 01:55 Clear 37 2.9 28 -2.3 69 69 NNE 5 7 30.36 1028 10 16.09344 0 0
2:15 am 02:15 Clear 38 3.6 28 -2 67 67 NNE 5 7 30.36 1028 10 16.09344 0 0
2:35 am 02:35 Clear 38 3.1 28 -2.3 68 68 NNE 3 6 30.36 1028 10 16.09344 0 0
2:55 am 02:55 Clear 36 2.2 28 -2.5 71 71 NNE 5 7 30.36 1028 10 16.09344 0 0
3:15 am 03:15 Clear 36 2.1 28 -2.4 72 72 NNE 3 6 30.39 1029 10 16.09344 0 0
3:35 am 03:35 Clear 36 2.3 28 -2.1 73 73 N 6 9 30.36 1028 10 16.09344 0 0
3:55 am 03:55 Clear 36 2.2 29 -1.8 75 75 NNE 6 9 30.36 1028 10 16.09344 0 0
4:15 am 04:15 Clear 35 1.8 29 -1.6 78 78 NNE 3 6 30.39 1029 10 16.09344 0 0
4:35 am 04:35 Clear 36 2.1 30 -1.3 78 78 NNE 5 7 30.39 1029 10 16.09344 0 0
4:55 am 04:55 Clear 36 2.1 30 -1 80 80 NNE 6 9 30.39 1029 10 16.09344 0 0
5:15 am 05:15 Clear 35 1.8 30 -1.2 81 81 NE 6 9 30.39 1029 10 16.09344 0 0
5:35 am 05:35 Clear 35 1.5 31 -0.8 85 85 NNE 5 7 30.42 1030 10 16.09344 0 0
5:55 am 05:55 Clear 34 1.3 30 -0.9 85 85 NE 5 7 30.42 1030 10 16.09344 0 0
6:15 am 06:15 Clear 33 0.7 30 -1 89 89 ENE 6 9 30.42 1030 10 16.09344 0 0
6:35 am 06:35 Clear 34 1.1 31 -0.5 89 89 NE 6 9 30.42 1030 10 16.09344 0 0
6:55 am 06:55 Clear 33 0.6 31 -0.6 92 92 ENE 6 9 30.42 1030 10 16.09344 0 0
7:15 am 07:15 Clear 34 1.2 32 0 92 92 ENE 6 9 30.42 1030 10 16.09344 0 0
7:35 am 07:35 Clear 34 1.1 32 0 92 92 ENE 6 9 30.42 1030 10 16.09344 0 0
7:55 am 07:55 Clear 34 1.1 32 0 92 92 ENE 6 9 30.42 1030 10 16.09344 0 0
8:15 am 08:15 Sunny 33 0.8 32 -0.2 93 93 ENE 6 9 30.42 1030 10 16.09344 0 0
8:35 am 08:35 Sunny 35 1.9 33 0.7 92 92 E 6 9 30.42 1030 10 16.09344 0 0
8:55 am 08:55 Sunny 39 3.7 36 2.2 90 90 ESE 6 9 30.39 1029 10 16.09344 0 0
9:15 am 09:15 Sunny 41 4.8 37 3 88 88 ESE 9 15 30.39 1029 10 16.09344 0 0
9:35 am 09:35 Sunny 43 6 38 3.6 85 85 ESE 14 22 30.36 1028 10 16.09344 0 0
9:55 am 09:55 Sunny 45 7.3 39 4 80 80 ESE 13 20 30.36 1028 10 16.09344 0 0
10:15 am 10:15 Sunny 48 8.9 40 4.3 73 73 SE 14 22 30.33 1027 10 16.09344 0 0
10:35 am 10:35 Sunny 50 9.8 39 4.1 68 68 ESE 15 24 30.33 1027 10 16.09344 0 0
10:55 am 10:55 Sunny 52 11 40 4.2 63 63 ESE 10 17 30.33 1027 10 16.09344 0 0
11:15 am 11:15 Sunny 54 12 39 4 58 58 ESE 13 20 30.33 1027 10 16.09344 0 0
11:35 am 11:35 Sunny 55 13 39 4 55 55 E 12 19 30.3 1026 10 16.09344 0 0
11:55 am 11:55 Sunny 57 14 38 3.5 49 49 ESE 12 19 30.3 1026 10 16.09344 0 0
12:15 pm 12:15 Sunny 59 14.9 37 2.7 44 44 ESE 12 19 30.27 1025 10 16.09344 0 0
12:35 pm 12:35 Sunny 60 15.7 36 2.2 40 40 SE 12 19 30.24 1024 10 16.09344 0 0
12:55 pm 12:55 Sunny 62 16.5 37 2.5 39 39 SE 12 19 30.24 1024 10 16.09344 0 0
1:15 pm 13:15 Sunny 62 16.9 37 2.7 39 39 ESE 10 17 30.24 1024 10 16.09344 0 0
1:35 pm 13:35 Sunny 64 17.5 38 3.1 38 38 SE 10 17 30.21 1023 10 16.09344 0 0
1:55 pm 13:55 Sunny 64 17.7 38 3.4 39 39 SSE 12 19 30.21 1023 10 16.09344 0 0
2:15 pm 14:15 Sunny 64 17.8 39 3.9 40 40 SSE 9 15 30.18 1022 10 16.09344 0 0
2:35 pm 14:35 Sunny 65 18.2 40 4.4 40 40 SE 9 15 30.15 1021 10 16.09344 0 0
2:55 pm 14:55 Sunny 65 18.6 40 4.3 39 39 SSE 8 13 30.15 1021 10 16.09344 0 0
3:15 pm 15:15 Sunny 66 19 40 4.6 39 39 SSE 12 19 30.15 1021 10 16.09344 0 0
3:35 pm 15:35 Sunny 66 18.9 40 4.6 39 39 SE 10 17 30.12 1020 10 16.09344 0 0
3:55 pm 15:55 Sunny 67 19.2 41 5.1 40 40 SE 10 17 30.12 1020 10 16.09344 0 0
4:15 pm 16:15 Sunny 66 19 42 5.3 41 41 SSE 10 17 30.12 1020 10 16.09344 0 0
4:35 pm 16:35 Sunny 67 19.3 43 6 42 42 SSE 10 17 30.12 1020 10 16.09344 0 0
4:55 pm 16:55 Sunny 67 19.2 43 6.2 43 43 SE 13 20 30.12 1020 10 16.09344 0 0
5:15 pm 17:15 Sunny 66 19.1 43 6.3 43 43 SSE 13 20 30.12 1020 10 16.09344 0 0
5:35 pm 17:35 Sunny 65 18.6 44 6.4 45 45 SSE 12 19 30.12 1020 10 16.09344 0 0
5:55 pm 17:55 Sunny 64 18 44 6.5 47 47 SSE 10 17 30.12 1020 10 16.09344 0 0
6:15 pm 18:15 Sunny 62 16.9 44 6.5 51 51 SSE 10 17 30.12 1020 10 16.09344 0 0
6:35 pm 18:35 Sunny 60 15.8 43 6.3 53 53 SE 8 13 30.15 1021 10 16.09344 0 0
6:55 pm 18:55 Clear 58 14.3 43 6.1 58 58 SE 8 13 30.15 1021 10 16.09344 0 0
7:15 pm 19:15 Clear 56 13.2 43 6 62 62 SE 8 13 30.15 1021 10 16.09344 0 0
7:35 pm 19:35 Clear 55 12.7 43 6 64 64 SE 9 15 30.15 1021 10 16.09344 0 0
7:55 pm 19:55 Clear 56 13.3 44 6.4 63 63 SE 10 17 30.15 1021 10 16.09344 0 0
8:15 pm 20:15 Clear 55 13 43 6.2 64 64 SE 9 15 30.15 1021 10 16.09344 0 0
8:35 pm 20:35 Clear 54 12.2 43 6 66 66 SE 9 15 30.15 1021 10 16.09344 0 0
8:55 pm 20:55 Clear 53 11.7 43 6 68 68 SE 9 15 30.15 1021 10 16.09344 0 0
9:15 pm 21:15 Clear 53 11.5 43 6 69 69 SE 7 11 30.15 1021 10 16.09344 0 0
9:35 pm 21:35 Clear 51 10.5 42 5.8 73 73 SE 7 11 30.18 1022 10 16.09344 0 0
9:55 pm 21:55 Clear 50 10.2 42 5.7 74 74 SE 7 11 30.18 1022 10 16.09344 0 0
10:15 pm 22:15 Clear 50 10 42 5.8 75 75 SE 7 11 30.18 1022 10 16.09344 0 0
10:35 pm 22:35 Clear 52 10.9 44 6.5 75 75 SE 9 15 30.15 1021 10 16.09344 0 0
10:55 pm 22:55 Clear 52 10.9 44 6.5 75 75 SE 7 11 30.15 1021 10 16.09344 0 0
11:15 pm 23:15 Clear 51 10.6 44 6.6 77 77 SE 6 9 30.18 1022 10 16.09344 0 0
11:35 pm 23:35 Clear 49 9.4 43 6.3 81 81 SE 8 13 30.15 1021 10 16.09344 0 0
11:55 pm 23:55 Clear 50 10 44 6.4 79 79 SE 8 13 30.15 1021 10 16.09344 0 0

Powered by AerisWeather